Location: Paris
(48.6709°N, 2.3750°E)
Time: 18:59:27
(UTC+02:00)

STARS - Pass Details

Date: 07 July 2022
Orbit: 620 x 637 km, 98.2° (Epoch: 06 August)

Event Time Altitude Azimuth Distance (km) Brightness Sun altitude
Rises 02:16:35 0° 358° (N) 2,930 ? -18.6°
Reaches altitude 10° 02:19:46 10° 333° (NNW) 2,013 ? -18.5°
Maximum altitude 02:21:56 14° 303° (WNW) 1,772 ? -18.5°
Drops below altitude 10° 02:24:06 10° 273° (W) 2,001 ? -18.4°
Enters shadow 02:25:45 - 257° (WSW) 2,419 ? -18.4°
